Ainsworth, NE

3:34 AM CST on November 20, 2017 (GMT -0600)
Ainsworth Municipal

Weather History for KANW - November, 2011

Change the Weather History Date:

Sunday, November 6, 2011

  Actual Average Record
Temperature  
Mean Temperature 40 °F -  
Max Temperature 48 °F 48 °F 78 °F (2010)
Min Temperature 32 °F 27 °F 14 °F (2007)
Degree Days  
Heating Degree Days 25    
Moisture  
Dew Point 28 °F    
Average Humidity 70    
Maximum Humidity 100    
Minimum Humidity 25    
Precipitation  
Precipitation 0.01 in - - ()
Sea Level Pressure  
Sea Level Pressure 29.73 in    
Wind  
Wind Speed 13 mph (West)    
Max Wind Speed 21 mph    
Max Gust Speed 31 mph    
Visibility 10 miles    
Events Rain , Snow    
Averages and records for this station are not official NWS values.
T = Trace of Precipitation, MM = Missing Value Source: NWS Daily Summary

Daily Weather History Graph

Daily Weather History Graph

Search for Another Location

Airport or City:

Trip Planner

Search our weather history database for the weather conditions in past years. The results will help you decide how hot, cold, wet, or windy it might be!

Date:

Astronomy

Nov. 06, 2011 Rise Set
Actual Time 7:19 AM CST 5:26 PM CST
Civil Twilight 6:50 AM CST 5:56 PM CST
Nautical Twilight 6:16 AM CST 6:30 PM CST
Astronomical Twilight 5:43 AM CST 7:03 PM CST
Moon 3:15 PM CST (11/6) 3:23 AM CST (11/6)
Length of Visible Light 11h 06m
Length of Day
10h 07m
Waxing Gibbous, 86% of the Moon is Illuminated
Nov 6
Waxing Gibbous
Nov 10
Full
Nov 18
Last Quarter
Nov 25
New
Dec 2
First Quarter

Hourly Weather History & Observations

Time (CST) Temp. Windchill Dew Point Humidity Pressure Visibility Wind Dir Wind Speed Gust Speed Precip Events Conditions
12:15 AM 48.2 °F - 35.6 °F 62% 29.41 in 10.0 mi West 8.1 mph - N/A   Overcast
12:35 AM 46.4 °F 42.9 °F 37.4 °F 71% 29.41 in 10.0 mi NW 6.9 mph - N/A Rain Light Rain
12:55 AM 44.6 °F 36.6 °F 39.2 °F 81% 29.43 in 10.0 mi WNW 19.6 mph 27.6 mph N/A   Light Drizzle
1:15 AM 37.4 °F 28.2 °F 32.0 °F 81% 29.46 in 10.0 mi NW 16.1 mph 31.1 mph N/A   Overcast
1:35 AM 35.6 °F 27.5 °F 32.0 °F 87% 29.48 in 10.0 mi NW 11.5 mph 25.3 mph N/A   Overcast
1:55 AM 35.6 °F 24.5 °F 32.0 °F 87% 29.50 in 5.0 mi NW 20.7 mph 25.3 mph N/A Snow Light Snow
1:15 AM 33.8 °F 23.9 °F 32.0 °F 93% 29.51 in 1.8 mi WNW 15.0 mph 20.7 mph N/A Snow Light Snow
1:35 AM 33.8 °F 24.8 °F 32.0 °F 93% 29.52 in 3.0 mi WNW 12.7 mph 20.7 mph N/A Snow Light Snow
1:55 AM 33.8 °F 23.9 °F 32.0 °F 93% 29.53 in 5.0 mi WNW 15.0 mph 23.0 mph N/A Snow Light Snow
2:15 AM 33.8 °F 23.9 °F 32.0 °F 93% 29.55 in 10.0 mi WNW 15.0 mph 23.0 mph N/A   Overcast
2:35 AM 33.8 °F 24.8 °F 32.0 °F 93% 29.57 in 10.0 mi WNW 12.7 mph - N/A   Mostly Cloudy
2:55 AM 33.8 °F 25.8 °F 32.0 °F 93% 29.57 in 10.0 mi WNW 10.4 mph 16.1 mph N/A   Scattered Clouds
3:15 AM 33.8 °F 25.3 °F 32.0 °F 93% 29.60 in 10.0 mi West 11.5 mph - N/A   Scattered Clouds
3:35 AM 33.8 °F 25.3 °F 32.0 °F 93% 29.61 in 10.0 mi West 11.5 mph 17.3 mph N/A   Overcast
3:55 AM 33.8 °F 25.8 °F 32.0 °F 93% 29.62 in 10.0 mi West 10.4 mph - N/A   Overcast
4:15 AM 33.8 °F 26.4 °F 32.0 °F 93% 29.62 in 10.0 mi West 9.2 mph - N/A   Overcast
4:35 AM 33.8 °F 26.4 °F 32.0 °F 93% 29.63 in 10.0 mi West 9.2 mph - N/A   Scattered Clouds
4:55 AM 32.0 °F 24.2 °F 32.0 °F 100% 29.63 in 10.0 mi West 9.2 mph - 0.01 in   Clear
5:15 AM 32.0 °F 23.6 °F 32.0 °F 100% 29.65 in 10.0 mi WSW 10.4 mph - N/A   Clear
5:35 AM 32.0 °F 22.1 °F 32.0 °F 100% 29.66 in 10.0 mi West 13.8 mph - N/A   Clear
5:55 AM 32.0 °F 22.5 °F 30.2 °F 93% 29.68 in 10.0 mi West 12.7 mph 17.3 mph N/A   Clear
6:15 AM 32.0 °F 22.5 °F 30.2 °F 93% 29.69 in 10.0 mi West 12.7 mph 18.4 mph N/A   Clear
6:35 AM 32.0 °F 21.2 °F 28.4 °F 87% 29.71 in 10.0 mi West 16.1 mph - N/A   Clear
6:55 AM 32.0 °F 22.1 °F 28.4 °F 87% 29.71 in 10.0 mi West 13.8 mph 18.4 mph N/A   Clear
7:15 AM 32.0 °F 22.5 °F 28.4 °F 87% 29.74 in 10.0 mi West 12.7 mph - N/A   Clear
7:35 AM 32.0 °F 21.6 °F 28.4 °F 87% 29.75 in 10.0 mi West 15.0 mph - N/A   Clear
7:55 AM 32.0 °F 22.5 °F 28.4 °F 87% 29.76 in 10.0 mi West 12.7 mph 19.6 mph N/A   Clear
8:15 AM 32.0 °F 22.1 °F 28.4 °F 87% 29.78 in 10.0 mi West 13.8 mph - N/A   Clear
8:35 AM 32.0 °F 21.6 °F 28.4 °F 87% 29.79 in 10.0 mi West 15.0 mph 21.9 mph N/A   Clear
8:55 AM 33.8 °F 23.5 °F 28.4 °F 81% 29.80 in 10.0 mi West 16.1 mph 23.0 mph N/A   Clear
9:15 AM 33.8 °F 23.2 °F 28.4 °F 81% 29.80 in 10.0 mi West 17.3 mph 23.0 mph N/A   Clear
9:35 AM 35.6 °F 25.9 °F 28.4 °F 75% 29.81 in 10.0 mi West 16.1 mph 23.0 mph N/A   Clear
9:55 AM 35.6 °F 26.6 °F 30.2 °F 81% 29.81 in 10.0 mi West 13.8 mph 18.4 mph N/A   Clear
10:15 AM 37.4 °F 27.8 °F 30.2 °F 75% 29.83 in 10.0 mi West 17.3 mph 20.7 mph N/A   Clear
10:35 AM 37.4 °F 28.2 °F 30.2 °F 75% 29.84 in 10.0 mi West 16.1 mph - N/A   Clear
10:55 AM 39.2 °F 30.8 °F 30.2 °F 70% 29.84 in 10.0 mi West 15.0 mph - N/A   Clear
11:15 AM 41.0 °F 32.8 °F 30.2 °F 65% 29.84 in 10.0 mi West 16.1 mph - N/A   Clear
11:35 AM 41.0 °F 33.1 °F 28.4 °F 61% 29.84 in 10.0 mi West 15.0 mph - N/A   Clear
11:55 AM 42.8 °F 35.1 °F 28.4 °F 57% 29.84 in 10.0 mi West 16.1 mph - N/A   Clear
12:15 PM 44.6 °F 37.8 °F 28.4 °F 53% 29.84 in 10.0 mi West 15.0 mph - N/A   Clear
12:35 PM 44.6 °F 36.6 °F 26.6 °F 49% 29.83 in 10.0 mi West 19.6 mph 24.2 mph N/A   Clear
12:55 PM 46.4 °F 39.0 °F 26.6 °F 46% 29.84 in 10.0 mi West 19.6 mph 26.5 mph N/A   Clear
1:15 PM 46.4 °F 39.0 °F 26.6 °F 46% 29.84 in 10.0 mi West 19.6 mph 24.2 mph N/A   Clear
1:35 PM 46.4 °F 39.0 °F 24.8 °F 43% 29.84 in 10.0 mi West 19.6 mph - N/A   Clear
1:55 PM 46.4 °F 39.5 °F 23.0 °F 40% 29.85 in 10.0 mi West 17.3 mph 24.2 mph N/A   Clear
2:15 PM 46.4 °F 39.8 °F 24.8 °F 43% 29.85 in 10.0 mi West 16.1 mph 24.2 mph N/A   Clear
2:35 PM 46.4 °F 38.7 °F 23.0 °F 40% 29.85 in 10.0 mi West 20.7 mph 25.3 mph N/A   Clear
2:55 PM 46.4 °F 39.2 °F 24.8 °F 43% 29.85 in 10.0 mi West 18.4 mph 23.0 mph N/A   Clear
3:15 PM 46.4 °F 39.2 °F 23.0 °F 40% 29.86 in 10.0 mi West 18.4 mph 23.0 mph N/A   Clear
3:35 PM 48.2 °F - 23.0 °F 37% 29.86 in 10.0 mi WSW 20.7 mph 26.5 mph N/A   Clear
3:55 PM 48.2 °F - 15.8 °F 27% 29.87 in 10.0 mi WSW 18.4 mph 26.5 mph N/A   Clear
4:15 PM 48.2 °F - 14.0 °F 25% 29.87 in 10.0 mi West 19.6 mph 23.0 mph N/A   Clear
4:35 PM 46.4 °F 40.4 °F 14.0 °F 27% 29.88 in 10.0 mi WSW 13.8 mph 23.0 mph N/A   Clear
4:55 PM 46.4 °F 42.9 °F 15.8 °F 29% 29.88 in 10.0 mi WSW 6.9 mph - N/A   Clear
5:15 PM 42.8 °F 39.3 °F 17.6 °F 36% 29.89 in 10.0 mi WSW 5.8 mph - N/A   Clear
5:35 PM 41.0 °F 38.0 °F 17.6 °F 39% 29.89 in 10.0 mi SW 4.6 mph - N/A   Clear
5:55 PM 39.2 °F 35.9 °F 19.4 °F 45% 29.91 in 10.0 mi West 4.6 mph - N/A   Clear
6:15 PM 37.4 °F 31.4 °F 19.4 °F 48% 29.91 in 10.0 mi WSW 8.1 mph - N/A   Clear
6:35 PM 35.6 °F 30.7 °F 19.4 °F 52% 29.92 in 10.0 mi SW 5.8 mph - N/A   Clear
6:55 PM 33.8 °F 27.7 °F 21.2 °F 60% 29.93 in 10.0 mi SW 6.9 mph - N/A   Clear
7:15 PM 33.8 °F 27.0 °F 21.2 °F 60% 29.94 in 10.0 mi WSW 8.1 mph - N/A   Clear
7:35 PM 37.4 °F 30.8 °F 19.4 °F 48% 29.94 in 10.0 mi West 9.2 mph - N/A   Clear
7:55 PM 32.0 °F 24.2 °F 21.2 °F 64% 29.95 in 10.0 mi SSW 9.2 mph - N/A   Clear
8:15 PM 30.2 °F 21.9 °F 23.0 °F 75% 29.97 in 10.0 mi South 9.2 mph - N/A   Clear
8:35 PM 32.0 °F 24.8 °F 23.0 °F 69% 29.98 in 10.0 mi SSW 8.1 mph - N/A   Clear
8:55 PM 32.0 °F 24.2 °F 21.2 °F 64% 29.99 in 10.0 mi SW 9.2 mph - N/A   Clear
9:15 PM 32.0 °F 24.2 °F 21.2 °F 64% 30.00 in 10.0 mi SW 9.2 mph - N/A   Clear
9:35 PM 33.8 °F 26.4 °F 21.2 °F 60% 30.01 in 10.0 mi SW 9.2 mph - N/A   Clear
9:55 PM 32.0 °F 25.6 °F 21.2 °F 64% 30.01 in 10.0 mi WSW 6.9 mph - N/A   Clear
10:15 PM 33.8 °F 27.7 °F 21.2 °F 60% 30.03 in 10.0 mi SW 6.9 mph - N/A   Clear
10:35 PM 33.8 °F 25.8 °F 21.2 °F 60% 30.03 in 10.0 mi SSW 10.4 mph - N/A   Clear
10:55 PM 33.8 °F 27.7 °F 21.2 °F 60% 30.04 in 10.0 mi SSW 6.9 mph - N/A   Clear